Location: Arclight Observatory
(36.5667°N, 87.3333°W)
Time: 11:57:16
(UTC-05:00)

ISS - Visible Passes

Search period start: 27 August 2016 00:00
Search period end: 06 September 2016 00:00
Orbit: 402 x 406 km, 51.6° (Epoch: 27 August)

Date Brightness Start Highest point End Pass type
(mag) Time Alt. Az. Time Alt. Az. Time Alt. Az.
01 Sep -0.2 05:34:11 10° SE 05:34:53 11° SE 05:35:35 10° ESE visible
03 Sep -1.5 05:23:13 10° SSW 05:26:02 27° SE 05:28:53 10° ENE visible
04 Sep -0.7 04:32:55 13° SE 04:33:42 13° SE 04:35:23 10° E visible
05 Sep -3.3 05:15:34 26° SW 05:17:16 78° SE 05:20:34 10° NE visible
